Location: Arbon
(43.0005°N, 0.7472°E)
Time: 01:18:46
(UTC+00:00)

Meteor 2-21 - Pass Details

Date: 07 August 2020
Orbit: 934 x 966 km, 82.6° (Epoch: 25 September)

Event Time Altitude Azimuth Distance (km) Brightness Sun altitude
Rises 03:28:58 0° 348° (NNW) 3,602 7.9 -14.2°
Reaches altitude 10° 03:31:28 10° 346° (NNW) 2,655 7.1 -13.8°
Maximum altitude 03:37:26 64° 266° (W) 1,034 4.4 -13.0°
Drops below altitude 10° 03:43:25 10° 186° (S) 2,652 6.4 -12.1°
Sets 03:45:54 0° 184° (S) 3,597 7.1 -11.7°
